Starlink 3305

operational
NORAD ID: 50166 Int'l Des: 2021-125 Owner: SPXS Country: US Constellation: starlink
LEOCIRCULAR

About Starlink 3305

Description loading...

Live Position

Loading 3D Globe...

Upcoming Passes

Altitude History

Altitude vs Time

uPlot chart will show altitude changes over time

Two-Line Element Set

1 50166U 21125L 25258.43612057 .00000736 00000-0 64342-4 0 9998
2 50166 53.2173 315.7990 0001061 88.2314 271.8800 15.08840391210131
Epoch: Sep 15, 2025 • Age: 27 hours

Current Status

Altitude 540.7 km
Velocity 7.59 km/s
Sub-Earth Point -0.05°S, 112.57°E
Launch Date Dec 18, 2021
Age 3.7 years
Type internet

Technical Details

Classification Payload
Mass 290.00 kg
Dry Mass 270.00 kg
Total Mass 290.00 kg
Length 0.20 m
Diameter 2.80 m
Span 9.00 m
Shape Box + pan
Manufacturer SPXS
Bus Type Starlink
Phase Status In Orbit
Owner/State SPXS/US

Large Constellations

Loading constellations...